Weather Service Report


300 
ASUS43 KLOT 260809
RWRIL 

ILLINOIS REGIONAL WEATHER ROUNDUP
NATIONAL WEATHER SERVICE CHICAGO/ROMEOVILLE IL
300 AM CDT MON JUN 26 2017

NOTE: "FAIR" INDICATES FEW OR NO CLOUDS BELOW 12,000 FEET WITH NO
SIGNIFICANT WEATHER AND/OR OBSTRUCTIONS TO VISIBILITY.

* THESE STATIONS ARE NOT UNDER NWS QUALITY CONTROL. THEY ALSO MAY NOT
  REPORT WEATHER SUCH AS PRECIPITATION OR FOG.

ILZ001-002-007-009-015-016-024-260900-
NORTHWEST ILLINOIS
  
CITY           SKY/WX    TMP DP  RH WIND       PRES   REMARKS
MOLINE         CLEAR     52  46  80 CALM      30.14F                  
STERLING*      CLEAR     53  50  89 W6        30.13S                  
SAVANNA*       CLEAR     57  48  72 NW8       30.12F                  
$$

ILZ003-004-008-010-011-017-018-260900-
NORTH CENTRAL ILLINOIS
  
CITY           SKY/WX    TMP DP  RH WIND       PRES   REMARKS
ROCKFORD       CLEAR     53  49  86 W6        30.13R                  
FREEPORT*      PTCLDY    52  47  84 SW6       30.13S                  
ROCHELLE*      CLEAR     50  48  93 W3        30.12S                  
DE KALB*       CLEAR     55  49  80 W9        30.11S                  
PERU*          CLEAR     52  49  87 W7        30.13S                  
$$

ILZ005-006-012>014-019>023-260900-
NORTHEAST ILLINOIS
  
CITY           SKY/WX    TMP DP  RH WIND       PRES   REMARKS
CHICAGO-OHARE  CLEAR     57  49  74 SW5       30.09S                  
CHICAGO-MIDWAY PTCLDY    58  50  75 W5        30.10R                  
AURORA         CLEAR     51  49  92 SW6       30.11S                  
LANSING*       PTCLDY    53  47  82 SW5       30.11S                  
JOLIET*        PTCLDY    51  49  93 CALM      30.11S                  
WAUKEGAN       MOCLDY    56  52  86 CALM      30.07S                  
DUPAGE AIRPORT PTCLDY    52  50  93 SW3       30.09S                  
WHEELING       CLEAR     56  52  86 SW3       30.10S                  
MORRIS*        PTCLDY    52  48  87 W7        30.11S                  
ROMEOVILLE*    PTCLDY    54  48  80 W5        30.11S                  
NORTHERLY ISL    N/A     60  48  64 W5          N/A                   
$$

LMZ740>746-260900-
SOUTHERN LAKE MICHIGAN
  
STATION/POSITION SKY/WX   TEMP    WIND        PRES    VSBY  WAVE
                          AIR SEA DIR/SP/G                  HT/PER
                          (F)     (DEG/KT/KT) (MB)    (MI)  (FT/S)
SOUTHERN BUOY              60 61  320/ 16/ 17 1017.4F         3/ 5
WILMETTE HARBOR            60 63  260/ 10/ 10   N/A           1/ 2
HARRISON CRIB              61     270/ 10/ 11   N/A
BURNHAM HARBOR             60                   N/A
CALUMET HARBOR             58     240/  3/  4 1018.5F
BURNS HARBOR               62     230/  5/  9 1019.3S
MICHIGAN CITY              61     300/ 16/ 18   N/A
MICHIGAN CITY 6N           62 66  290/ 12/ 17   N/A           5/ 5
ST. JOSEPH                 63 69  310/ 16/ 21 1018.2          6/ 5
$$

ILZ025>027-034>036-040-047-049-050-058-095>099-260900-
WEST-CENTRAL ILLINOIS
  
CITY           SKY/WX    TMP DP  RH WIND       PRES   REMARKS
QUINCY         CLEAR     54  49  83 SW5       30.18F                  
GALESBURG*     CLEAR     49  47  92 CALM      30.17S                  
MACOMB*        PTCLDY    50  47  90 SW6       30.20S                  
JACKSONVILLE*  PTCLDY    53  47  81 SW6       30.18S                  
PITTSFIELD*    CLEAR     55  50  82 W5        30.19S                  
$$

ILZ028>032-037-038-041>044-048-051>054-059>061-260900-
CENTRAL ILLINOIS
  
CITY           SKY/WX    TMP DP  RH WIND       PRES   REMARKS
PONTIAC        CLEAR     55  52  90 SW5       30.14F                  
BLOOMINGTON    MOCLDY    55  50  83 SW6       30.16S                  
DECATUR        PTCLDY    54  48  80 SW3       30.16F                  
PEORIA         CLEAR     54  50  86 CALM      30.15F                  
LACON*         CLEAR     54  52  94 CALM      30.13F                  
LINCOLN*       PTCLDY    53  49  86 CALM      30.16F                  
SPRINGFIELD    CLEAR     55  49  80 SW3       30.17S                  
TAYLORVILLE    PTCLDY    51  49  93 CALM      30.18S                  
$$

ILZ033-039-045-046-055>057-062-063-260900-
EAST-CENTRAL ILLINOIS
  
CITY           SKY/WX    TMP DP  RH WIND       PRES   REMARKS
CHAMPAIGN        N/A    N/A N/A N/A MISG      30.15F                  
RANTOUL*       PTCLDY    54  50  86 CALM      30.15S                  
MATTOON        PTCLDY    57  50  77 SW3       30.16S                  
PARIS*         CLEAR     52  49  92 CALM      30.16F                  
$$

ILZ079-100>102-260900-
SOUTHWEST ILLINOIS
  
CITY           SKY/WX    TMP DP  RH WIND       PRES   REMARKS
ALTON          CLEAR     55  52  90 CALM      30.20S                  
BELLEVILLE     CLEAR     57  50  76 CALM      30.21S                  
CAHOKIA*       CLEAR     55  49  80 CALM      30.20S                  
SPARTA*        CLEAR     59  50  73 CALM      30.21S                  
$$

ILZ064>066-069>071-074>076-080>082-084>086-088>090-092>094-260900-
SOUTH-CENTRAL ILLINOIS
  
CITY           SKY/WX    TMP DP  RH WIND       PRES   REMARKS
CARBONDALE     CLOUDY    62  59  90 W3        30.19S                  
CAIRO*         CLOUDY    67  57  69 N3        30.18S                  
EFFINGHAM*     CLEAR     54  51  91 CALM      30.19S                  
MARION         CLOUDY    63  57  82 CALM      30.20R                  
MT. VERNON     CLEAR     52  51  97 CALM      30.19S                  
CENTRALIA*     CLEAR     53  51  94 CALM      30.19S                  
SALEM*         CLEAR     55  51  84 CALM      30.18S                  
METROPOLIS*    CLOUDY    66  56  68 CALM      30.19R                  
$$

ILZ067-068-072-073-078-083-087-091-260900-
SOUTHEAST ILLINOIS
  
CITY           SKY/WX    TMP DP  RH WIND       PRES   REMARKS
LAWRENCEVILLE  CLEAR     58  52  80 NW5       30.17S                  
FLORA*         CLEAR     54  49  86 CALM      30.18F                  
FAIRFIELD*     CLEAR     54  51  89 CALM      30.17S                  
HARRISBURG*    CLOUDY    63  58  82 CALM      30.19S                  
ROBINSON*      CLEAR     51  49  94 CALM      30.18S                  
CARMI*         CLEAR     56  54  93 CALM      30.18R                  
$$

ABBREVIATIONS USED IN REMARKS
   TC - TEMPERATURE IN CELSIUS
  WCI - WIND CHILL INDEX
   HX - HEAT INDEX
  VSB - VISIBILITY
$$

  

Return to Home page


Western Regional Climate Center, wrcc@dri.edu